Wind_Speed
18 19 19 19 20 20 20 20 20 20 19 19 18 18 17 17 17 17 16 15 15 14 15 14 13 12 11 11 11 11 11 11 12 10 7 9 12 14 19 23 24 26 26 27 28 29 30 29 27 25 22 20 19 17 16 15 13 12 11 10 12 12 9 8 7 5 6 4 4 3 3 5 7 9 8 8 8 7 6 6 7 10 10 8 10 11 15 23
18 18 18 18 19 19 19 20 20 20 20 20 19 19 19 18 18 18 18 17 16 16 16 15 15 13 12 11 11 12 11 11 10 7 9 13 12 11 16 23 25 25 25 26 27 28 29 29 28 26 24 22 20 19 18 15 14 13 10 12 14 12 10 8 8 5 6 4 2 2 3 4 6 7 5 5 5 5 5 4 5 10 12 11 13 13 15 22
16 17 17 18 18 18 19 19 20 20 20 20 20 20 19 19 18 19 19 18 18 18 17 16 16 15 13 12 11 11 11 12 9 7 13 13 9 9 13 20 23 22 22 22 22 23 25 27 28 27 27 25 22 21 20 17 15 13 11 13 14 13 10 8 8 6 5 4 2 1 2 3 5 6 5 4 2 1 2 3 2 5 9 10 14 16 16 22
16 17 17 18 18 19 19 20 20 20 20 20 20 20 19 19 18 18 19 19 19 19 18 18 17 16 14 13 12 11 11 12 10 9 14 12 9 11 12 16 19 20 21 21 22 22 22 26 29 29 28 26 25 24 21 18 16 14 12 12 14 14 11 9 8 5 4 3 3 3 1 2 3 5 5 4 2 4 2 3 4 3 5 8 11 15 16 21
17 17 18 18 19 20 20 21 21 21 21 21 21 21 20 19 19 18 18 19 19 19 19 19 19 17 16 15 12 11 10 10 10 10 13 12 12 14 13 14 16 21 24 24 25 25 26 29 31 31 30 28 27 25 22 19 17 14 10 11 16 15 12 11 9 6 4 2 4 3 0 3 4 3 4 3 4 8 7 5 5 6 3 1 6 11 16 21
18 19 19 19 20 21 21 21 21 22 21 21 22 21 21 20 19 19 18 18 19 19 19 20 20 18 17 16 14 13 10 9 10 10 11 12 13 14 14 14 16 22 26 26 27 28 30 31 33 34 33 30 28 25 22 20 18 14 10 16 19 16 14 13 11 8 5 5 4 1 2 5 7 4 3 1 3 4 6 6 4 5 4 2 4 9 13 19
19 20 20 20 21 21 22 21 20 21 21 21 21 21 21 20 20 19 19 19 18 18 18 19 20 19 19 18 16 14 11 10 12 9 9 11 11 12 11 13 18 22 26 28 28 29 31 33 34 35 33 32 29 26 23 22 20 15 13 20 19 16 17 15 12 10 8 7 4 3 6 11 8 6 5 1 3 1 1 2 2 3 4 4 4 7 11 16
20 20 20 20 20 21 21 20 18 19 19 19 20 21 20 20 19 19 19 19 19 19 18 18 19 19 19 19 18 16 12 13 14 10 10 13 13 13 11 12 18 22 25 27 26 26 28 31 33 33 34 33 30 27 24 23 22 17 15 19 17 17 19 16 14 11 8 7 4 5 9 13 10 9 8 2 2 3 2 3 4 4 3 5 6 8 12 16
21 21 21 21 20 20 20 18 17 17 17 18 19 21 21 20 20 19 20 19 19 19 19 18 18 18 19 19 19 18 14 14 14 12 14 17 17 17 14 11 16 21 23 24 25 25 26 27 29 31 32 31 30 27 25 25 24 19 16 18 17 17 19 17 16 12 8 8 7 9 11 13 13 14 12 6 6 5 4 6 6 6 5 5 8 11 13 17
22 22 22 22 21 20 19 17 16 16 16 17 18 20 21 21 21 20 20 20 20 20 19 19 18 18 18 19 20 18 15 15 15 14 15 18 19 18 16 13 15 19 20 23 25 26 24 22 22 25 28 29 29 27 27 28 24 20 18 19 18 18 19 17 17 15 10 10 9 11 12 13 15 18 15 8 7 6 6 8 8 8 7 5 8 13 14 16
22 22 22 22 22 21 19 17 16 16 16 16 18 20 22 22 22 21 21 22 21 21 20 19 19 19 18 18 19 17 16 16 16 15 16 19 19 18 17 15 15 17 19 21 23 23 20 18 18 22 26 28 29 29 30 29 24 22 21 21 21 19 21 20 19 17 12 13 11 10 11 12 17 21 17 11 11 10 10 10 9 9 9 8 9 13 17 18
22 22 22 22 22 22 21 18 18 18 17 18 20 22 22 22 23 22 22 23 23 23 21 19 18 18 18 17 16 18 18 18 18 17 18 19 19 18 18 16 15 15 15 17 18 19 18 19 19 21 23 26 29 28 29 30 26 23 22 22 22 21 23 23 21 19 15 15 11 8 11 14 21 21 15 14 14 13 13 13 12 11 11 11 11 14 18 20
21 22 22 22 23 22 21 20 20 20 21 21 22 24 23 23 23 23 23 23 24 25 22 20 18 17 17 13 14 18 19 19 19 18 19 19 18 18 18 17 18 16 14 14 15 16 16 18 18 19 21 24 27 27 26 29 29 26 23 23 22 22 24 25 22 20 17 16 11 8 14 18 22 21 17 18 17 15 15 14 14 14 14 14 13 14 18 21
21 22 22 23 23 23 22 22 22 22 22 23 24 25 24 24 24 24 24 24 26 26 23 22 19 18 16 11 14 18 16 17 20 20 21 20 19 19 19 20 21 21 20 18 17 17 17 18 18 19 22 23 26 27 24 24 29 30 24 24 25 23 24 26 23 21 19 17 12 10 18 20 19 20 21 20 19 18 16 15 16 15 15 16 15 15 18 21
22 22 23 24 24 24 23 23 24 23 23 23 24 26 25 24 25 25 25 26 27 26 23 23 21 19 16 12 16 18 17 19 21 21 22 22 22 21 21 21 23 23 22 22 21 20 20 20 21 22 24 25 26 27 25 22 26 31 26 24 28 26 24 27 23 22 21 18 13 12 18 21 19 20 22 20 21 20 18 17 17 16 16 16 17 16 17 20
22 22 23 25 25 25 25 25 25 25 25 24 25 26 26 25 25 25 24 26 27 25 23 22 20 18 16 14 15 16 19 23 22 22 23 24 24 23 23 23 24 25 25 24 23 23 22 22 22 22 23 26 28 28 27 24 24 29 29 27 28 27 25 26 24 23 21 18 17 15 18 21 19 20 23 23 23 23 21 19 17 17 16 17 19 17 18 20
22 22 23 25 27 27 26 26 26 26 25 25 26 27 26 25 24 24 24 25 25 23 21 19 17 15 14 14 14 16 21 25 25 24 24 24 26 26 26 25 26 27 28 26 26 26 25 25 25 24 24 27 31 29 26 28 28 29 32 31 28 27 27 27 24 23 22 19 18 17 19 22 21 20 23 24 25 25 22 20 18 17 16 17 20 19 19 21
22 23 24 26 27 27 27 27 27 26 26 25 25 26 26 25 24 23 21 21 20 18 16 15 14 10 8 12 13 16 21 26 28 26 26 26 27 27 26 25 25 28 30 29 28 29 28 28 27 27 28 29 33 37 33 35 36 32 32 33 29 27 29 31 26 22 21 19 17 18 20 23 22 21 23 23 25 26 23 21 21 20 19 18 20 21 20 22
23 24 24 26 27 28 28 28 28 28 27 26 25 25 25 24 23 20 16 15 15 14 13 13 13 9 9 14 15 16 19 24 29 30 29 28 28 28 28 27 26 28 32 34 33 33 32 31 31 32 35 37 39 44 43 38 34 31 30 31 30 29 31 33 29 23 18 16 16 18 21 22 21 23 24 25 26 26 25 25 25 25 24 21 21 21 21 21
24 24 24 25 27 28 28 29 29 29 28 27 26 25 24 22 21 17 11 11 13 13 11 11 12 10 12 15 16 17 17 21 26 30 33 31 30 31 31 30 30 31 34 36 36 36 35 36 40 42 43 42 41 42 44 37 30 27 26 25 27 29 32 32 30 26 21 17 17 16 18 20 21 23 24 25 27 29 29 28 27 27 26 24 22 21 21 19
24 24 23 24 27 28 28 28 29 28 29 28 27 26 25 23 21 18 13 9 11 12 10 9 10 11 14 17 18 17 14 18 22 26 33 34 33 34 35 34 34 36 36 35 36 36 37 40 45 45 43 40 37 38 41 40 34 28 24 21 22 27 33 34 32 30 25 23 22 20 20 21 20 22 24 26 28 30 31 29 27 26 25 24 23 22 21 19
23 23 24 24 26 27 27 28 27 27 27 27 27 26 25 24 21 20 20 14 11 12 11 9 9 11 15 17 18 16 11 15 19 22 28 33 36 37 37 37 37 37 36 36 37 37 40 45 46 43 41 39 36 36 39 40 38 33 27 22 23 27 31 34 34 31 27 24 24 22 23 24 21 22 25 27 28 29 29 30 28 26 24 23 23 22 23 22
23 24 24 25 26 27 27 27 26 25 25 25 25 24 23 23 21 20 21 19 15 13 12 12 10 12 15 16 16 13 8 10 17 20 24 30 35 37 37 39 38 36 38 41 42 42 43 45 43 41 41 39 37 36 37 39 39 38 34 28 29 29 28 32 34 31 26 24 25 23 24 27 23 21 25 28 28 28 28 29 29 29 27 25 24 22 24 24
24 24 25 26 26 27 27 27 25 24 23 22 21 21 21 20 20 19 20 20 17 12 12 13 11 12 14 15 15 10 3 9 18 21 24 28 31 35 38 38 38 38 41 43 43 45 45 39 37 41 41 38 37 37 38 39 39 39 39 36 34 32 30 31 30 26 24 22 22 19 20 27 27 21 23 27 29 33 33 33 33 32 31 29 27 26 26 26
26 26 26 27 26 26 27 26 25 24 23 21 19 19 19 18 17 18 19 20 15 10 10 11 10 10 11 13 13 7 3 9 17 21 23 27 30 34 37 37 38 40 41 41 41 43 44 37 30 32 39 40 37 38 40 40 38 37 40 42 38 35 32 29 27 24 22 20 19 15 12 22 30 28 26 26 27 31 34 35 34 31 31 32 30 28 28 28
29 28 28 28 27 27 27 27 26 24 23 20 18 18 17 16 15 15 18 18 13 9 10 10 8 9 10 11 11 5 2 6 12 15 19 27 31 34 35 36 39 40 39 37 37 39 41 39 29 21 29 40 39 38 40 40 36 36 42 43 39 36 33 29 27 23 19 18 18 14 9 14 25 30 28 27 27 29 30 31 31 30 31 32 30 29 30 30
30 30 29 29 28 27 26 26 26 25 23 19 17 17 15 15 13 13 14 11 8 7 8 8 8 9 12 11 9 6 2 2 7 8 13 23 30 33 34 34 36 38 38 35 32 36 38 38 32 18 19 34 41 40 40 40 39 40 43 40 36 35 34 32 29 25 23 24 22 17 12 13 23 32 29 24 26 28 30 31 30 31 31 29 28 29 30 30
31 30 30 30 29 27 26 25 24 23 22 19 17 16 14 13 12 11 7 3 5 7 7 8 9 10 10 8 7 5 3 3 5 8 11 17 26 32 34 33 32 32 36 37 34 34 35 37 37 25 18 28 40 43 41 40 41 43 37 31 33 35 34 33 30 28 28 26 28 29 22 12 18 34 33 22 25 30 31 33 32 33 32 29 28 28 30 31
31 31 31 30 29 27 26 25 23 23 21 18 16 15 14 12 11 8 2 1 4 7 8 9 9 10 7 5 7 5 4 6 6 8 10 12 20 28 31 30 29 26 29 36 36 33 32 33 34 31 28 30 33 35 39 41 42 42 31 22 24 27 30 31 27 29 27 21 28 35 27 14 14 33 38 26 30 37 33 32 31 32 32 30 30 28 30 32
32 31 31 31 29 26 24 23 23 23 21 17 13 13 12 11 10 4 1 3 6 7 10 11 9 11 10 8 8 7 7 7 6 8 9 9 14 23 28 28 28 26 25 29 32 34 33 28 27 32 35 36 30 24 29 37 39 40 34 22 18 18 22 27 26 27 20 16 30 38 30 18 13 29 41 36 39 41 33 31 32 31 32 32 33 33 32 33
32 31 31 31 29 26 23 20 19 20 20 17 12 11 11 10 8 2 2 4 8 10 13 13 11 12 14 11 8 7 7 7 6 6 5 7 11 19 24 24 26 26 25 28 29 31 32 29 27 29 31 33 33 25 21 25 31 36 34 26 21 15 16 21 23 22 14 11 27 36 32 24 18 28 41 41 42 40 33 33 33 31 31 31 30 32 32 33
31 30 30 29 26 24 22 20 18 17 18 17 13 11 9 8 5 2 4 6 6 11 15 17 17 16 17 15 12 10 7 5 5 4 5 1 6 13 15 15 21 24 22 26 28 27 32 34 30 27 26 27 31 32 29 24 26 33 33 28 20 10 8 12 10 11 11 9 15 22 23 23 25 34 42 42 41 41 37 35 34 31 30 30 30 31 32 33
31 30 29 28 24 19 18 19 18 16 16 15 12 10 7 5 2 1 6 5 5 11 16 17 19 18 17 15 12 10 7 4 4 4 7 4 3 9 11 10 15 20 17 16 19 22 25 31 32 29 26 26 28 33 36 32 30 32 34 31 22 8 4 7 4 3 9 10 12 20 20 16 20 30 41 45 43 42 40 35 33 31 30 30 30 31 33 35
31 29 28 26 22 16 13 14 17 15 13 12 9 6 4 3 1 3 6 6 7 11 14 16 17 15 13 10 10 11 8 6 5 4 5 2 4 8 8 9 8 12 15 11 11 14 16 19 28 33 28 26 29 31 32 33 34 33 34 33 29 20 11 5 3 3 6 6 11 22 18 7 7 18 34 44 44 41 40 36 31 30 29 26 25 27 32 38
30 28 26 23 20 17 12 11 14 14 11 10 8 3 3 3 2 4 6 7 9 11 13 15 15 13 9 7 8 10 8 7 7 5 5 3 5 8 6 5 4 5 12 10 7 10 14 16 24 33 32 26 26 28 28 29 32 33 33 33 35 36 26 10 5 8 7 4 9 20 18 7 4 9 18 31 42 43 39 36 32 30 30 24 21 23 29 36
28 27 24 21 19 18 15 11 11 12 10 7 5 1 4 3 2 3 5 6 8 10 12 12 12 12 11 10 10 9 7 6 7 5 4 5 6 9 9 7 7 4 5 6 4 2 8 18 22 27 34 32 26 26 28 29 27 27 32 38 38 38 32 18 11 12 10 6 10 20 21 16 14 15 14 19 32 42 41 37 33 30 29 26 22 23 25 31
29 27 24 21 19 18 17 13 10 10 8 6 3 3 6 4 1 2 4 5 6 8 10 10 10 10 10 11 13 12 9 6 7 7 4 3 3 6 7 7 8 8 8 5 1 4 9 17 23 22 29 36 32 28 28 29 27 25 30 38 35 28 28 26 15 8 8 6 7 15 21 19 17 18 19 20 24 34 40 39 36 32 28 26 24 23 23 27
31 28 24 22 21 20 18 15 12 9 7 5 2 5 6 3 2 5 6 5 5 5 8 8 7 7 8 9 11 12 12 9 9 7 5 4 3 4 6 4 4 6 7 7 4 4 10 12 20 22 24 32 36 32 27 27 29 27 26 30 27 21 22 28 18 7 7 5 4 9 15 20 23 19 17 21 26 32 37 37 36 34 30 27 25 23 23 25
30 27 24 23 22 21 19 15 12 11 7 5 4 6 6 4 2 3 4 3 3 3 6 6 5 5 6 7 8 9 10 10 11 9 5 6 5 4 7 6 1 1 4 6 6 5 6 6 12 21 21 22 30 33 31 28 28 30 29 26 26 25 24 28 26 14 7 3 4 7 7 15 28 29 22 22 25 29 34 36 35 34 32 29 26 25 24 24
28 25 23 24 23 22 20 14 10 9 6 5 6 7 7 6 4 3 3 3 3 3 4 4 4 5 5 5 6 7 8 8 10 9 6 6 7 6 8 8 7 5 5 5 7 6 4 6 8 18 19 16 21 29 33 31 27 31 34 28 26 27 24 23 27 27 17 6 2 4 5 10 21 25 26 26 25 27 31 34 35 34 33 30 28 26 25 25
27 24 22 23 24 22 18 13 8 8 6 6 7 8 8 8 7 5 4 3 3 3 2 2 4 5 5 5 5 5 7 8 8 7 6 6 7 6 8 10 11 11 9 7 6 8 6 7 11 16 18 17 20 24 26 25 24 27 28 27 28 28 23 15 15 26 30 19 9 5 5 12 17 15 17 20 22 26 29 31 33 32 32 31 29 27 24 24
27 25 23 23 24 20 14 11 9 8 7 8 8 8 9 9 8 7 6 5 5 4 3 2 4 5 5 5 5 6 6 7 6 5 4 6 7 7 9 12 13 13 12 10 8 8 7 7 10 17 22 21 23 23 18 16 19 20 20 22 27 28 27 19 11 18 27 25 23 18 12 20 27 18 12 14 16 20 24 28 31 29 28 27 27 28 26 24
26 25 23 23 24 18 12 10 10 8 8 9 9 8 9 9 9 9 10 10 10 9 8 7 7 7 6 5 5 7 7 6 5 4 5 8 9 8 10 12 13 13 13 11 8 5 4 5 8 14 23 25 25 20 15 14 15 17 18 19 22 24 26 25 19 17 21 22 23 17 12 23 31 23 17 15 14 17 19 22 26 26 25 25 24 26 27 26
26 25 23 24 23 17 13 14 10 7 9 9 9 8 9 9 9 10 13 14 12 11 12 11 10 9 6 5 5 7 8 6 4 5 8 9 10 10 12 13 13 14 12 9 9 8 4 3 8 8 10 15 19 17 16 17 15 14 15 15 18 21 23 28 27 19 18 25 26 17 13 23 27 23 21 18 15 18 19 20 24 26 27 29 28 29 30 30
26 25 24 26 23 16 16 17 12 6 8 10 9 9 9 8 8 9 11 12 12 11 12 12 10 9 8 7 7 8 9 8 6 7 8 8 10 13 14 14 14 14 13 10 11 12 9 6 6 4 1 4 10 8 6 11 11 11 13 15 16 16 17 23 23 17 17 25 30 28 22 23 22 18 17 18 17 17 17 18 21 23 26 30 30 29 30 32
26 24 24 26 22 17 18 19 14 8 6 9 9 10 11 10 8 7 8 9 9 9 9 10 10 10 10 11 11 10 11 10 9 8 8 8 10 12 14 16 16 15 15 12 12 13 12 11 10 10 11 12 14 13 11 15 17 15 14 16 15 12 12 13 15 19 23 23 28 36 34 30 30 27 23 23 24 23 23 22 21 21 22 25 25 25 25 27
27 24 24 25 20 16 18 17 14 10 6 6 8 9 11 11 9 6 6 8 8 8 8 9 10 10 11 12 13 12 11 12 11 10 9 10 11 11 13 15 14 15 16 15 13 13 13 14 14 16 19 20 22 23 16 14 20 22 19 18 17 13 11 14 18 24 23 19 24 35 38 38 42 39 34 32 31 29 28 27 27 27 26 27 28 29 30 30
27 24 24 24 20 17 16 15 13 10 7 6 7 8 10 10 8 6 5 6 7 8 8 8 9 10 10 11 12 12 12 12 11 10 9 9 10 11 12 12 12 13 14 14 14 12 12 15 17 18 20 22 23 21 15 14 19 22 20 19 18 15 14 19 24 25 25 25 24 24 31 42 46 41 36 34 31 28 27 25 26 27 27 29 30 32 35 33
26 24 23 22 20 18 15 13 12 9 6 7 7 8 9 9 8 7 6 6 6 7 8 9 11 11 10 11 12 12 11 12 12 12 12 12 12 12 12 12 12 13 14 13 11 9 11 14 14 15 20 24 23 19 15 15 18 21 21 17 14 17 20 22 25 26 29 33 30 25 31 43 47 42 38 35 32 30 28 25 24 22 22 25 27 30 32 30
26 24 21 20 18 15 14 13 11 8 6 8 7 7 8 8 6 6 8 8 6 6 7 8 10 10 10 11 12 11 11 12 14 15 16 16 15 13 13 13 13 14 16 15 10 7 11 12 8 9 18 24 23 18 15 13 15 20 20 15 13 18 21 23 24 26 28 31 35 36 39 44 45 43 41 38 34 33 31 27 23 20 21 23 25 29 29 27
26 24 20 17 15 13 12 12 12 9 7 7 7 7 7 8 7 7 8 7 6 7 8 8 9 9 9 10 11 12 12 13 15 16 17 19 18 16 16 17 16 16 18 17 12 10 13 14 12 10 15 22 22 17 14 13 16 19 18 13 12 12 13 16 19 24 27 29 34 40 43 46 45 42 42 40 37 36 33 29 24 21 21 22 21 24 26 24
25 24 19 15 13 11 11 11 12 10 7 7 8 7 6 7 9 9 7 4 4 7 8 9 10 10 9 9 11 12 13 14 16 16 17 19 20 19 20 20 19 19 20 19 16 13 13 15 14 9 11 20 23 18 16 13 11 15 18 14 9 5 6 9 12 18 24 26 31 38 44 46 45 43 42 40 38 37 34 30 26 22 20 17 14 16 17 18
Wind_Direction
326 324 323 321 320 319 317 317 315 313 311 309 306 304 301 300 299 297 297 296 295 294 292 292 289 286 282 276 273 271 269 267 266 268 261 239 233 226 217 216 217 218 217 214 212 210 209 206 205 208 207 206 204 202 203 204 206 208 208 203 191 184 172 146 130 96 70 62 20 33 121 143 161 172 168 156 161 156 143 147 148 150 158 155 159 186 195 180
332 330 329 327 325 324 322 321 319 317 314 312 309 305 303 300 298 296 294 293 292 290 289 289 288 287 283 278 271 269 270 267 267 263 247 241 243 239 224 221 221 220 218 216 216 213 211 210 207 208 209 209 205 204 207 208 208 209 211 201 187 176 168 150 133 111 82 74 20 47 120 144 167 188 193 167 166 157 137 137 150 158 166 172 168 176 194 189
341 339 337 335 334 332 330 329 326 324 321 319 316 311 308 305 301 298 295 292 289 286 285 285 284 285 283 281 273 268 268 267 265 244 246 251 249 243 228 225 224 224 222 218 220 218 215 215 213 210 210 209 205 207 210 213 213 209 211 199 178 167 168 151 133 122 99 90 68 82 142 169 174 184 203 202 189 141 136 119 107 162 179 181 177 176 189 194
346 344 342 339 338 336 335 333 331 329 326 325 322 319 317 313 309 304 298 293 287 284 283 282 280 281 281 280 276 270 265 266 264 242 249 257 246 237 230 227 223 220 220 214 214 215 213 213 214 213 212 209 205 207 213 217 216 212 213 194 171 168 171 158 149 136 106 98 114 145 220 252 193 172 186 191 73 45 96 118 81 117 190 198 189 182 186 195
344 342 340 339 338 336 335 334 331 329 328 327 325 323 323 320 318 313 306 298 291 286 282 279 277 277 276 275 276 272 265 266 261 242 245 245 235 233 228 225 216 214 217 215 212 210 208 209 210 211 211 210 207 207 213 220 220 219 212 183 175 175 174 170 167 153 128 132 142 153 257 292 248 197 197 185 73 57 83 98 89 92 97 205 214 200 188 193
339 337 336 335 335 334 334 333 331 329 329 328 327 326 326 325 323 318 312 306 299 292 284 279 276 273 272 271 271 268 264 264 253 238 241 238 231 234 228 217 209 210 214 215 214 212 209 208 208 208 209 209 210 210 213 217 221 223 200 180 182 180 175 175 175 167 161 170 171 183 271 265 267 276 271 188 105 78 87 88 97 110 109 128 219 218 193 189
333 331 330 329 330 331 331 332 332 331 332 332 332 331 331 331 328 323 319 314 307 298 290 283 276 272 269 267 265 263 258 252 249 239 234 232 226 233 231 215 209 209 212 214 214 214 213 213 210 208 208 208 208 209 211 213 219 223 198 183 184 179 173 173 181 182 181 179 181 249 256 251 265 302 295 129 117 235 115 110 159 165 158 153 176 206 192 185
330 328 326 325 326 328 329 331 332 332 334 336 336 334 333 334 333 329 327 322 315 305 297 288 280 274 268 265 262 259 253 248 251 242 222 225 229 239 240 220 213 211 212 216 218 219 220 219 216 212 209 209 207 206 208 212 217 219 196 185 186 180 173 175 187 188 192 190 196 241 246 247 257 290 291 294 305 274 246 233 231 236 203 163 161 178 187 187
331 328 326 325 325 327 327 327 329 330 334 338 337 334 332 335 334 332 331 327 322 313 303 293 285 276 268 264 260 257 252 247 250 239 223 226 232 242 242 225 218 215 212 212 217 222 223 223 222 219 215 211 208 205 207 211 216 214 194 188 193 188 180 183 189 189 204 205 213 238 234 235 245 264 272 269 275 267 250 247 242 250 237 184 170 171 181 187
332 329 327 326 326 327 325 322 324 325 331 336 335 331 330 331 331 332 331 327 324 317 308 300 289 280 271 264 259 256 252 245 245 237 224 222 227 234 234 222 216 216 214 209 212 219 222 225 226 226 221 215 211 207 208 212 215 212 205 203 202 199 191 192 194 188 208 216 215 236 228 222 232 247 257 264 274 275 270 256 244 250 248 219 184 175 180 188
329 327 325 325 325 326 324 318 316 318 323 329 329 325 325 327 327 329 328 326 324 317 310 303 295 287 277 267 261 256 249 242 239 233 224 220 221 225 225 220 213 212 215 211 211 217 221 223 224 225 222 218 213 209 211 213 213 213 217 213 206 208 201 199 198 189 208 218 210 240 243 233 230 235 245 260 277 284 282 271 255 250 244 233 204 182 180 186
326 324 323 322 323 325 324 317 310 309 313 318 320 319 320 322 322 325 326 325 323 316 310 304 299 294 283 275 266 254 242 236 234 229 224 220 217 219 219 214 204 203 214 215 212 214 220 222 222 222 221 219 215 212 216 214 213 216 222 218 211 219 214 203 199 194 208 210 199 253 265 243 226 225 237 253 268 278 280 276 262 252 244 236 218 196 185 183
324 322 321 321 321 322 324 320 311 306 306 309 311 312 315 317 317 321 323 324 319 313 310 306 303 296 288 282 265 252 240 235 236 227 222 219 212 212 214 208 193 186 196 206 208 212 220 224 226 225 222 222 216 214 218 214 215 218 223 224 223 232 223 204 200 203 208 203 199 253 263 245 226 224 235 246 261 269 270 269 260 253 244 235 221 205 193 187
325 322 321 319 319 320 322 320 316 311 308 307 306 307 310 312 313 317 320 320 314 310 311 309 306 299 292 281 255 248 236 229 230 223 216 213 208 206 207 205 193 182 181 185 193 207 218 221 224 225 222 222 217 216 218 216 217 217 223 229 231 242 225 201 203 212 208 202 211 251 260 250 233 231 236 241 257 264 263 260 255 253 246 237 227 212 201 194
327 325 323 320 319 320 320 319 317 316 314 311 308 306 307 309 311 314 318 315 310 311 315 312 308 302 295 276 252 244 230 221 221 217 211 206 204 204 203 204 197 184 180 181 186 198 210 215 219 220 219 218 216 217 217 215 217 217 221 226 229 239 220 198 205 214 209 208 220 247 256 250 237 238 242 245 254 259 258 255 251 251 248 242 234 221 208 201
330 328 326 323 321 321 322 320 318 317 316 314 312 309 309 311 311 314 316 313 311 316 317 312 307 302 293 274 253 238 224 219 218 213 208 203 202 203 199 200 199 188 183 185 185 191 201 209 215 220 221 218 215 215 214 213 213 214 218 222 226 231 219 207 208 210 213 218 225 240 253 252 242 240 244 248 253 254 253 251 250 249 248 247 242 233 217 206
332 330 328 325 323 322 323 320 318 318 316 314 313 312 312 314 314 317 318 314 314 319 318 313 308 298 285 273 252 228 218 217 217 212 206 202 201 203 199 197 200 193 185 187 188 189 196 204 211 216 219 218 213 210 212 214 210 208 213 219 223 224 222 220 210 207 218 224 230 244 253 251 248 244 243 245 247 248 248 247 248 247 246 247 247 242 226 214
331 330 329 327 325 325 326 323 320 319 318 316 315 314 315 316 317 321 319 315 316 321 318 314 315 309 283 276 257 229 217 215 216 212 206 203 200 203 203 199 202 198 187 188 193 193 196 204 210 214 218 217 212 208 210 213 208 204 207 214 218 219 222 222 213 208 216 223 233 248 254 250 252 255 251 247 245 245 248 249 250 249 249 249 248 247 233 220
329 329 329 328 327 329 331 329 326 324 321 320 319 318 318 317 317 320 320 322 321 322 325 320 324 331 301 287 272 245 223 213 214 211 207 205 199 199 203 201 202 203 196 193 196 197 198 204 207 212 215 212 208 207 208 211 209 206 208 214 218 218 222 221 215 211 210 218 229 240 253 255 257 259 255 252 249 248 251 254 253 249 247 247 245 245 238 227
327 327 327 327 327 329 332 331 330 328 325 323 322 321 320 317 316 315 315 335 335 324 327 323 319 321 305 297 288 269 239 216 214 211 209 208 202 198 202 202 200 202 204 203 202 201 201 206 209 212 213 210 208 208 209 211 209 208 210 216 220 223 224 221 220 220 219 228 232 237 255 259 260 260 255 254 251 249 251 251 250 246 243 244 241 240 239 235
325 324 324 324 325 326 328 329 329 329 326 324 324 323 326 326 325 321 308 323 341 322 313 315 316 316 312 310 306 296 261 223 214 211 211 210 205 202 203 204 202 202 205 206 207 205 204 211 215 217 216 212 210 210 212 214 211 209 208 212 219 224 225 222 223 228 231 239 241 244 256 258 258 260 255 251 249 248 247 247 247 246 243 243 240 236 238 239
323 321 320 321 322 322 324 325 326 327 325 323 324 326 329 330 331 327 315 311 327 319 297 291 311 318 316 318 321 322 292 230 212 211 213 210 208 207 206 206 207 208 206 203 203 204 208 216 221 221 218 215 213 213 214 215 215 214 212 214 219 222 225 225 224 230 237 242 244 247 257 258 257 262 257 250 249 249 249 249 252 253 250 250 246 236 233 235
324 320 318 318 319 319 320 321 322 324 322 320 322 324 326 327 327 327 319 312 316 315 290 278 295 310 311 320 332 335 308 221 202 206 212 211 209 209 209 209 210 211 209 205 203 204 209 219 224 220 218 217 215 214 214 216 219 218 218 221 222 220 224 226 226 232 241 245 248 251 257 259 257 259 255 250 250 253 255 255 257 259 258 260 260 247 235 234
326 323 319 317 319 319 317 317 319 319 317 317 318 318 319 322 324 323 318 314 314 310 291 280 291 308 313 325 341 346 300 199 192 200 209 212 210 209 210 211 210 210 210 209 207 209 214 220 224 221 219 219 218 216 215 216 220 222 222 224 224 220 222 227 230 234 241 241 244 248 257 258 254 250 249 248 249 250 253 254 254 257 257 258 258 250 240 237
328 327 323 319 320 320 317 316 317 314 314 315 313 313 313 316 319 318 317 318 315 300 288 289 299 315 321 334 350 352 252 197 189 196 207 211 208 208 210 210 212 212 211 210 209 216 220 220 227 228 221 219 219 218 216 216 220 225 224 223 224 223 224 230 235 241 249 247 240 237 250 258 253 249 247 246 247 247 248 249 251 254 255 253 252 247 239 235
331 332 329 325 325 324 320 317 316 313 314 315 312 309 309 312 315 316 317 317 310 288 276 285 303 319 320 331 350 349 243 195 190 196 207 213 210 208 208 209 213 214 212 211 214 221 223 220 227 236 225 221 219 219 219 216 219 227 227 223 224 229 230 234 240 247 255 255 244 224 222 262 257 250 248 248 248 249 248 249 250 251 250 250 250 246 239 233
335 336 336 333 331 330 327 322 320 319 319 320 316 308 306 310 314 317 320 317 307 289 275 285 306 324 324 323 338 352 348 197 206 216 220 220 216 210 208 209 213 215 214 214 219 226 224 219 221 224 223 222 219 219 220 216 218 227 230 227 227 233 235 237 242 248 252 256 253 231 221 266 263 248 243 245 247 248 247 247 249 249 249 249 248 245 240 234
337 338 338 336 334 333 332 329 327 325 324 325 321 311 307 310 312 315 323 328 303 293 290 300 306 322 330 317 318 338 347 319 262 259 250 231 221 216 214 211 211 215 216 216 220 225 225 222 219 211 209 222 223 223 222 216 218 227 232 233 233 234 237 240 245 251 255 261 262 250 239 252 260 245 239 239 242 243 242 242 245 248 249 249 248 245 241 235
337 338 337 335 333 333 332 329 327 325 324 327 325 314 307 309 307 305 301 231 285 293 303 308 306 318 321 286 292 286 280 318 318 295 280 248 227 220 219 216 212 213 219 224 227 227 228 229 225 216 214 222 227 228 226 220 220 225 228 234 239 238 239 243 247 253 257 259 256 254 243 234 253 246 238 236 237 237 238 241 244 247 249 251 249 245 241 236
336 338 336 333 333 332 328 326 325 321 320 324 325 313 304 300 295 291 177 252 286 300 305 307 307 319 317 283 272 261 257 287 314 310 291 257 230 219 218 220 217 212 215 225 232 233 232 235 233 227 223 225 229 231 229 227 227 228 227 228 239 246 242 243 246 250 255 252 247 249 244 235 250 247 238 233 234 235 238 241 243 246 249 251 249 246 243 237
337 339 336 333 335 332 326 324 321 319 320 324 327 317 303 289 275 228 169 266 292 301 303 313 314 316 330 325 298 287 276 269 285 306 281 240 221 211 211 216 218 216 216 221 229 233 232 234 235 234 231 229 229 229 229 231 231 230 228 226 232 239 238 239 238 233 236 250 247 248 246 237 236 242 237 231 232 235 238 239 240 245 247 246 244 243 240 237
338 340 336 333 335 331 325 323 320 321 325 326 333 331 306 276 245 222 277 280 301 318 322 334 335 329 338 335 319 316 313 288 298 352 22 318 203 188 186 196 207 212 216 221 226 229 230 231 233 236 237 232 230 229 227 229 230 228 224 218 218 220 220 225 220 217 232 253 248 246 247 239 239 246 241 231 231 233 234 237 240 243 246 244 240 237 235 233
338 340 337 333 331 329 326 323 321 326 328 326 336 334 291 246 188 341 322 315 320 332 335 342 345 342 339 334 331 332 330 329 329 17 41 41 126 133 143 167 195 205 209 217 223 226 231 233 231 232 235 231 229 226 223 224 226 224 217 209 205 190 188 221 213 237 252 253 247 246 251 248 246 252 246 233 228 231 232 235 239 242 247 248 246 244 239 235
338 340 338 335 329 326 327 323 323 328 328 326 332 321 256 191 87 2 359 357 335 335 342 345 345 343 341 345 353 348 338 352 355 355 21 71 129 100 132 165 177 201 204 202 209 214 223 230 223 221 223 225 227 226 224 224 225 226 221 213 211 209 203 209 189 210 251 254 244 240 241 235 230 256 253 237 227 228 232 233 236 243 247 253 258 257 252 244
339 340 339 338 332 326 326 327 327 328 328 328 323 293 187 131 50 356 360 3 351 347 348 346 340 338 346 350 351 357 354 2 6 348 3 51 105 81 94 139 120 179 192 191 202 212 223 224 215 214 213 214 222 227 228 225 222 226 224 215 215 217 214 217 235 236 251 266 234 227 226 222 229 261 261 242 230 227 230 232 233 239 245 252 262 261 256 249
338 340 340 339 336 329 324 320 320 318 319 324 314 249 136 130 44 359 343 348 358 355 346 342 339 343 356 348 340 356 358 359 13 8 16 43 71 70 67 76 69 81 142 170 192 223 250 230 212 211 212 211 214 218 222 223 219 218 216 214 218 221 219 224 251 253 250 260 238 229 234 244 248 251 251 243 235 228 228 232 233 234 240 248 255 255 252 250
338 342 341 338 337 335 324 310 301 304 306 311 305 134 130 142 192 251 285 324 347 351 347 349 351 354 359 351 342 347 347 348 9 18 29 27 32 43 45 68 76 63 64 70 97 17 314 247 214 205 210 210 213 215 216 222 223 215 213 218 220 220 223 225 236 249 232 244 251 232 237 242 239 242 239 233 234 230 227 230 232 232 235 243 248 249 249 250
341 345 341 336 336 338 331 312 290 284 288 293 235 159 159 174 209 241 266 311 329 336 347 357 4 357 355 353 344 344 349 349 353 8 27 19 11 11 1 22 79 61 48 38 24 4 334 273 226 213 211 209 211 216 215 218 225 225 226 227 216 203 213 217 218 233 224 232 279 247 242 241 236 234 230 226 232 235 231 229 231 231 232 238 242 245 248 248
342 344 338 335 337 338 336 318 286 271 270 267 222 186 190 201 215 264 284 311 321 339 355 1 4 355 351 350 339 342 355 355 354 0 9 5 351 313 323 327 305 13 9 2 354 344 352 327 242 224 219 213 210 214 217 214 218 224 231 234 222 213 215 213 214 222 224 218 261 261 255 244 243 242 237 233 234 236 236 234 233 231 230 233 236 240 245 246
341 344 340 338 341 341 341 331 292 269 258 249 235 213 209 216 229 280 305 300 298 330 354 360 355 346 339 336 331 341 352 347 350 358 1 358 342 305 304 305 289 295 312 331 340 315 321 353 276 232 218 215 207 208 216 217 212 215 221 222 218 219 220 219 222 225 228 229 209 250 264 245 246 249 246 241 235 234 238 238 237 235 233 234 236 240 243 241
341 345 345 343 346 346 346 342 309 275 255 242 237 227 224 228 236 260 288 285 288 317 344 347 337 332 321 318 325 334 336 335 339 349 354 351 344 322 305 307 308 307 306 313 320 309 318 341 300 259 236 224 204 194 204 212 208 209 216 217 216 219 217 214 223 224 226 233 232 240 274 255 250 250 250 246 235 232 237 239 239 239 239 240 240 241 242 238
344 346 347 347 349 350 351 347 321 287 258 240 233 229 231 237 241 253 271 273 276 289 287 285 308 321 313 306 320 326 325 330 325 327 345 342 341 332 314 315 317 315 318 319 309 306 320 330 300 272 259 238 204 187 192 206 208 210 215 215 216 221 221 219 225 224 223 229 239 247 269 266 257 250 245 247 236 230 235 238 240 241 241 242 242 242 242 239
347 346 345 348 351 355 2 357 328 286 254 238 232 232 239 248 257 264 272 275 278 280 272 269 281 297 301 292 303 314 314 314 302 298 324 325 322 320 314 318 318 315 320 317 302 301 315 337 320 281 265 245 215 207 225 232 222 220 219 212 210 217 223 227 237 239 228 223 228 237 258 260 257 250 242 242 234 226 226 230 235 236 238 238 234 234 237 237
348 345 344 348 353 357 4 0 339 282 253 242 235 238 248 261 269 270 275 278 278 275 273 277 280 277 277 279 293 307 310 304 279 282 305 314 314 312 310 316 319 317 318 310 301 301 285 318 334 314 283 253 232 232 247 243 231 225 220 209 208 214 219 227 235 241 240 231 223 220 241 252 253 251 243 238 232 228 226 228 232 235 239 242 240 238 238 239
349 347 346 349 353 357 359 359 351 305 259 247 240 240 247 262 273 272 278 281 279 276 276 277 275 266 265 275 285 291 294 289 277 283 301 311 309 308 309 313 318 319 316 303 291 291 277 263 289 302 151 218 228 233 277 283 269 243 220 205 204 211 219 229 236 238 243 239 227 223 236 246 246 240 232 227 227 229 230 233 239 238 235 237 239 240 241 243
349 349 348 349 352 355 355 354 350 333 278 253 253 250 251 260 270 276 280 277 271 269 270 266 261 261 267 272 276 279 280 280 280 285 294 297 298 303 305 307 314 317 314 305 286 278 271 256 257 260 248 244 253 266 298 315 302 277 244 221 211 217 230 241 242 235 238 244 239 236 241 248 247 242 238 239 242 245 245 245 250 250 238 230 230 234 241 249
349 351 349 349 352 353 352 350 345 332 297 266 266 263 265 268 270 277 278 267 255 245 252 262 263 267 273 276 280 284 281 280 282 281 281 281 284 291 295 300 311 315 317 317 298 278 271 263 260 264 263 263 269 273 282 301 296 289 277 250 231 231 250 258 247 233 231 243 248 245 245 250 253 252 252 255 259 261 260 257 258 260 257 251 249 250 256 261
348 350 348 349 350 348 348 349 343 326 295 272 271 271 278 279 276 283 278 266 263 254 250 257 262 268 279 284 286 287 286 287 288 284 280 281 282 283 287 296 307 308 313 321 308 284 270 267 264 263 265 265 266 269 280 293 288 286 282 265 253 258 267 263 250 235 229 234 241 247 250 251 254 256 258 261 264 268 270 270 269 268 265 262 260 260 262 260
346 347 347 348 347 345 347 349 344 327 283 260 265 270 277 277 277 285 286 282 280 270 257 250 254 263 271 278 280 282 288 293 292 290 290 291 290 288 290 295 297 299 307 316 312 286 264 264 265 266 265 261 258 261 275 286 283 277 268 264 281 285 271 259 249 235 232 235 236 241 249 251 252 256 260 263 266 271 275 278 278 273 264 260 262 261 257 249
345 346 346 346 344 344 346 346 342 327 277 250 253 264 274 277 277 285 292 292 285 275 272 264 262 266 268 271 275 278 283 284 282 284 287 288 287 287 289 288 288 293 299 305 307 279 258 254 244 253 262 257 252 255 265 274 281 274 257 253 287 290 271 260 250 237 235 238 235 235 242 248 250 254 258 261 264 271 276 278 279 272 262 264 264 254 241 231
344 344 343 345 348 348 347 346 343 330 287 256 255 260 273 285 288 296 299 292 279 280 286 286 281 278 275 274 275 275 275 274 274 277 280 280 279 278 276 275 279 285 288 296 300 269 246 243 236 245 266 258 246 246 258 270 276 264 248 251 277 278 260 254 247 237 235 235 231 232 239 245 247 251 256 259 263 269 273 277 278 271 267 269 259 239 228 222
343 343 344 349 355 353 347 349 349 336 299 267 263 262 275 293 300 307 309 299 285 288 294 301 300 300 302 295 287 284 283 281 281 280 277 274 273 271 269 267 270 274 275 283 288 265 239 240 241 245 270 256 243 246 266 285 282 246 233 241 255 241 211 214 222 229 229 226 226 230 236 241 246 250 253 256 261 265 270 274 274 272 275 269 237 214 214 213
Height
3141 3140 3139 3137 3136 3135 3134 3134 3133 3132 3132 3131 3131 3130 3130 3129 3128 3128 3128 3128 3127 3127 3126 3126 3126 3126 3126 3126 3126 3125 3126 3126 3126 3127 3128 3127 3127 3128 3129 3130 3131 3132 3134 3136 3137 3139 3141 3143 3145 3146 3148 3149 3151 3152 3152 3153 3154 3154 3154 3154 3155 3155 3155 3156 3157 3157 3157 3158 3158 3158 3158 3159 3159 3159 3160 3160 3161 3161 3162 3162 3162 3162 3163 3164 3165 3167 3169 3169
3140 3139 3138 3136 3135 3134 3133 3132 3131 3130 3130 3129 3129 3128 3128 3128 3127 3126 3126 3126 3126 3125 3125 3124 3124 3124 3124 3124 3125 3124 3124 3124 3125 3126 3125 3125 3126 3127 3127 3128 3129 3131 3133 3135 3137 3139 3141 3142 3144 3145 3147 3149 3150 3151 3151 3152 3153 3153 3154 3154 3155 3155 3156 3156 3157 3157 3157 3158 3159 3159 3159 3159 3160 3160 3161 3161 3161 3162 3162 3162 3162 3162 3163 3164 3165 3167 3169 3170
3139 3138 3137 3136 3134 3133 3132 3131 3130 3129 3128 3127 3127 3126 3126 3126 3126 3125 3124 3124 3124 3123 3123 3123 3122 3122 3123 3123 3123 3123 3123 3123 3124 3124 3123 3123 3125 3125 3126 3126 3128 3130 3133 3135 3137 3139 3141 3142 3143 3144 3145 3147 3149 3150 3150 3152 3153 3153 3153 3154 3155 3155 3156 3157 3157 3158 3157 3158 3159 3159 3160 3160 3160 3161 3161 3162 3162 3162 3162 3163 3163 3163 3163 3164 3165 3166 3168 3170
3139 3138 3136 3135 3134 3133 3131 3130 3129 3128 3127 3126 3125 3124 3124 3124 3124 3123 3123 3122 3122 3121 3121 3121 3121 3121 3121 3121 3121 3122 3122 3121 3122 3122 3121 3122 3124 3124 3124 3125 3127 3130 3131 3133 3134 3137 3139 3140 3141 3143 3144 3146 3147 3148 3149 3151 3152 3153 3153 3154 3155 3155 3156 3157 3157 3158 3158 3158 3158 3159 3160 3160 3160 3161 3161 3162 3162 3162 3163 3164 3164 3164 3164 3165 3166 3167 3168 3170
3139 3138 3136 3135 3133 3132 3131 3129 3128 3127 3125 3124 3123 3123 3122 3122 3122 3121 3121 3120 3119 3119 3119 3119 3119 3119 3119 3119 3120 3120 3120 3120 3120 3120 3120 3120 3121 3121 3123 3124 3126 3128 3129 3130 3131 3133 3134 3136 3138 3140 3142 3144 3145 3147 3149 3150 3152 3152 3153 3154 3155 3155 3156 3156 3157 3158 3158 3158 3158 3159 3160 3161 3161 3161 3161 3162 3163 3163 3163 3164 3164 3164 3165 3165 3167 3168 3168 3170
3139 3137 3136 3134 3133 3132 3130 3129 3127 3126 3124 3123 3122 3121 3121 3120 3119 3119 3118 3118 3117 3117 3117 3116 3116 3117 3117 3117 3118 3118 3119 3119 3118 3119 3119 3119 3119 3119 3121 3122 3124 3125 3126 3128 3129 3130 3131 3133 3135 3137 3139 3142 3144 3146 3148 3150 3151 3152 3153 3153 3154 3155 3156 3156 3156 3157 3157 3158 3159 3159 3160 3161 3160 3161 3162 3163 3163 3164 3164 3164 3165 3165 3165 3165 3167 3168 3169 3170
3138 3137 3135 3134 3132 3131 3129 3128 3127 3125 3124 3122 3121 3120 3119 3119 3118 3117 3116 3116 3115 3114 3114 3114 3114 3115 3115 3115 3116 3116 3117 3117 3116 3118 3118 3118 3118 3118 3119 3121 3121 3123 3124 3125 3126 3128 3129 3131 3132 3135 3138 3140 3142 3146 3148 3149 3150 3151 3152 3153 3154 3154 3155 3156 3156 3156 3157 3157 3158 3159 3160 3160 3160 3161 3162 3163 3164 3164 3164 3164 3165 3165 3165 3165 3166 3168 3169 3171
3138 3136 3134 3133 3132 3130 3129 3127 3126 3124 3123 3122 3120 3119 3118 3117 3116 3115 3114 3114 3113 3112 3112 3111 3111 3112 3112 3113 3113 3114 3116 3115 3115 3117 3118 3117 3117 3117 3118 3119 3120 3121 3122 3124 3126 3128 3129 3131 3132 3135 3137 3139 3141 3144 3146 3148 3148 3150 3152 3153 3153 3154 3154 3155 3155 3155 3156 3157 3158 3158 3158 3159 3160 3161 3161 3162 3163 3164 3164 3164 3165 3165 3165 3165 3166 3168 3169 3171
3137 3135 3133 3132 3131 3129 3128 3127 3125 3124 3122 3121 3120 3118 3117 3116 3115 3114 3113 3112 3111 3110 3109 3109 3108 3109 3109 3110 3111 3112 3113 3114 3114 3115 3116 3115 3115 3115 3116 3118 3119 3120 3121 3124 3126 3127 3128 3130 3133 3135 3137 3139 3142 3144 3145 3145 3146 3149 3151 3152 3152 3153 3154 3154 3154 3155 3155 3156 3157 3157 3157 3158 3159 3160 3159 3161 3162 3163 3164 3164 3164 3165 3165 3166 3166 3167 3169 3171
3136 3134 3132 3131 3130 3128 3127 3126 3124 3123 3122 3121 3119 3117 3115 3115 3114 3113 3111 3110 3109 3108 3107 3106 3106 3106 3107 3107 3108 3109 3111 3111 3112 3112 3113 3113 3114 3114 3115 3116 3118 3119 3120 3122 3124 3125 3127 3131 3134 3136 3137 3140 3141 3143 3143 3143 3145 3148 3150 3150 3151 3152 3152 3153 3153 3154 3154 3155 3155 3156 3156 3158 3159 3159 3157 3159 3161 3162 3163 3164 3164 3164 3165 3166 3167 3167 3169 3171
3135 3133 3131 3130 3128 3127 3126 3125 3123 3122 3121 3120 3118 3116 3114 3113 3112 3111 3110 3108 3107 3106 3105 3104 3103 3103 3104 3104 3105 3106 3108 3109 3109 3110 3111 3111 3112 3112 3113 3115 3116 3118 3120 3121 3123 3125 3128 3131 3133 3134 3136 3138 3140 3141 3141 3142 3145 3146 3147 3148 3149 3150 3150 3151 3152 3153 3154 3154 3155 3155 3156 3157 3158 3156 3155 3158 3160 3161 3163 3163 3163 3164 3165 3166 3167 3167 3168 3170
3134 3132 3130 3129 3127 3126 3125 3124 3122 3120 3119 3118 3117 3115 3113 3112 3110 3109 3108 3107 3105 3103 3102 3102 3101 3101 3101 3102 3102 3102 3104 3105 3105 3107 3108 3109 3110 3111 3112 3114 3115 3117 3120 3122 3124 3126 3128 3130 3131 3132 3134 3136 3138 3140 3140 3141 3144 3145 3145 3146 3147 3148 3148 3149 3151 3152 3152 3153 3154 3155 3154 3154 3154 3153 3155 3158 3159 3160 3161 3162 3163 3163 3164 3166 3166 3167 3168 3169
3133 3131 3129 3127 3126 3125 3123 3122 3120 3119 3118 3117 3115 3113 3112 3110 3109 3108 3106 3105 3103 3101 3100 3100 3099 3099 3099 3100 3099 3098 3100 3102 3103 3104 3105 3106 3108 3110 3111 3113 3114 3116 3118 3121 3123 3126 3127 3129 3130 3132 3133 3134 3137 3138 3138 3140 3142 3143 3144 3145 3145 3146 3146 3148 3150 3151 3151 3152 3153 3154 3152 3151 3152 3153 3155 3157 3158 3159 3160 3161 3162 3163 3164 3165 3166 3167 3167 3168
3131 3129 3127 3125 3124 3123 3122 3120 3119 3117 3116 3115 3113 3111 3110 3109 3107 3106 3105 3103 3100 3099 3098 3097 3097 3096 3096 3098 3096 3095 3097 3099 3099 3100 3102 3104 3106 3108 3109 3111 3111 3113 3115 3118 3120 3123 3125 3127 3128 3130 3131 3132 3134 3136 3137 3139 3140 3141 3143 3143 3143 3144 3144 3146 3149 3149 3150 3152 3153 3154 3151 3149 3152 3154 3155 3156 3157 3158 3159 3160 3161 3162 3163 3164 3165 3166 3167 3167
3130 3128 3126 3124 3122 3121 3120 3118 3117 3115 3114 3113 3111 3109 3108 3107 3105 3104 3103 3100 3097 3097 3096 3094 3094 3093 3094 3094 3092 3092 3095 3095 3095 3097 3099 3101 3103 3105 3108 3110 3110 3111 3114 3116 3118 3120 3122 3124 3125 3126 3127 3130 3132 3133 3135 3137 3137 3139 3140 3140 3140 3141 3143 3145 3147 3148 3149 3151 3152 3152 3149 3148 3151 3153 3154 3155 3156 3157 3158 3159 3160 3161 3162 3163 3164 3165 3166 3167
3128 3126 3124 3122 3120 3119 3118 3116 3115 3113 3112 3111 3108 3106 3106 3105 3104 3103 3101 3098 3095 3095 3094 3092 3091 3091 3090 3090 3089 3090 3091 3091 3092 3094 3097 3099 3101 3103 3105 3108 3109 3109 3111 3114 3115 3117 3119 3121 3122 3124 3126 3127 3129 3131 3133 3135 3135 3136 3137 3137 3138 3140 3142 3143 3145 3147 3148 3150 3150 3150 3148 3148 3150 3152 3153 3154 3155 3156 3157 3158 3159 3160 3161 3162 3163 3164 3165 3166
3127 3125 3123 3121 3118 3117 3116 3114 3113 3111 3110 3108 3106 3104 3103 3103 3102 3101 3099 3095 3093 3093 3092 3090 3090 3089 3087 3087 3086 3086 3087 3088 3090 3092 3095 3097 3098 3100 3101 3104 3106 3107 3109 3112 3113 3115 3116 3118 3119 3121 3122 3124 3126 3129 3131 3130 3130 3132 3133 3135 3136 3139 3140 3141 3143 3146 3147 3148 3148 3149 3148 3147 3149 3151 3152 3153 3154 3155 3156 3157 3158 3159 3160 3161 3162 3163 3164 3165
3125 3123 3122 3120 3117 3115 3114 3112 3110 3109 3108 3106 3104 3103 3101 3100 3099 3099 3097 3094 3092 3091 3090 3089 3088 3087 3085 3084 3083 3083 3084 3086 3088 3090 3093 3094 3097 3099 3100 3103 3105 3106 3107 3109 3110 3112 3114 3115 3117 3118 3119 3120 3122 3123 3122 3121 3124 3128 3130 3132 3134 3137 3138 3138 3141 3144 3146 3147 3147 3147 3147 3146 3148 3149 3150 3152 3152 3153 3154 3155 3156 3157 3159 3160 3160 3161 3163 3163
3123 3122 3120 3118 3115 3114 3112 3110 3108 3106 3105 3104 3102 3101 3099 3098 3097 3097 3096 3093 3091 3090 3089 3087 3086 3086 3085 3083 3082 3082 3083 3085 3086 3088 3090 3092 3095 3097 3099 3101 3102 3104 3104 3105 3106 3108 3110 3111 3112 3112 3111 3111 3113 3114 3116 3119 3125 3129 3130 3132 3134 3135 3136 3137 3140 3143 3145 3145 3145 3145 3145 3145 3147 3147 3148 3150 3151 3151 3152 3153 3154 3155 3156 3158 3159 3160 3161 3162
3122 3120 3119 3116 3114 3112 3110 3108 3106 3104 3102 3101 3100 3099 3098 3097 3095 3095 3095 3093 3090 3089 3088 3087 3085 3085 3084 3082 3080 3080 3082 3084 3085 3087 3088 3089 3092 3095 3097 3097 3099 3100 3101 3102 3103 3105 3107 3107 3104 3102 3102 3106 3110 3114 3118 3122 3126 3128 3130 3131 3133 3134 3134 3136 3139 3141 3143 3143 3143 3144 3143 3143 3144 3145 3146 3148 3149 3150 3150 3151 3151 3152 3154 3155 3157 3159 3160 3161
3120 3118 3117 3115 3112 3110 3108 3106 3104 3102 3100 3098 3097 3096 3095 3094 3093 3092 3092 3092 3090 3088 3087 3086 3085 3084 3082 3080 3079 3079 3080 3082 3084 3085 3085 3087 3090 3092 3093 3094 3095 3095 3097 3101 3103 3104 3104 3101 3098 3099 3103 3108 3113 3116 3119 3121 3124 3126 3128 3129 3131 3131 3132 3134 3137 3138 3141 3142 3141 3142 3141 3140 3141 3142 3144 3145 3146 3146 3147 3148 3149 3150 3152 3153 3155 3157 3159 3161
3118 3116 3115 3113 3111 3108 3106 3104 3102 3100 3098 3096 3094 3094 3093 3093 3092 3091 3089 3089 3088 3087 3086 3085 3084 3083 3081 3080 3078 3078 3078 3080 3083 3084 3084 3086 3087 3088 3090 3091 3091 3093 3096 3099 3099 3100 3099 3094 3095 3100 3105 3109 3113 3115 3118 3120 3123 3125 3126 3127 3128 3129 3130 3133 3135 3137 3139 3140 3140 3141 3140 3138 3139 3140 3141 3142 3142 3143 3145 3145 3147 3149 3151 3151 3153 3155 3157 3159
3116 3114 3112 3111 3109 3106 3104 3102 3100 3099 3096 3095 3093 3092 3092 3091 3091 3090 3088 3087 3086 3085 3084 3084 3083 3082 3080 3079 3078 3078 3077 3078 3081 3082 3082 3083 3084 3086 3087 3088 3089 3092 3093 3092 3092 3093 3091 3090 3095 3101 3105 3108 3111 3114 3116 3119 3121 3122 3124 3124 3124 3127 3130 3131 3133 3135 3137 3138 3138 3139 3139 3136 3136 3138 3137 3138 3139 3141 3143 3144 3145 3147 3148 3149 3151 3154 3155 3157
3114 3112 3110 3108 3107 3104 3102 3101 3099 3097 3095 3093 3092 3091 3090 3089 3089 3088 3086 3085 3084 3084 3083 3082 3082 3081 3079 3078 3078 3077 3077 3077 3078 3078 3079 3080 3082 3084 3084 3086 3088 3089 3089 3089 3091 3090 3088 3091 3097 3100 3103 3106 3110 3112 3114 3116 3117 3119 3121 3121 3122 3125 3128 3129 3132 3133 3134 3136 3136 3138 3138 3134 3133 3135 3134 3135 3137 3138 3140 3141 3143 3144 3146 3148 3150 3152 3154 3156
3112 3110 3108 3106 3105 3103 3100 3099 3097 3095 3094 3092 3091 3089 3088 3088 3087 3086 3084 3083 3082 3082 3081 3081 3081 3080 3079 3078 3077 3077 3076 3076 3075 3075 3076 3077 3079 3080 3081 3084 3085 3086 3087 3089 3092 3090 3090 3095 3097 3099 3102 3105 3107 3109 3111 3113 3116 3117 3117 3118 3121 3124 3127 3129 3131 3132 3133 3134 3135 3137 3137 3132 3131 3132 3132 3133 3134 3135 3136 3138 3139 3141 3143 3145 3146 3148 3151 3153
3110 3108 3106 3104 3103 3101 3099 3097 3095 3094 3092 3091 3090 3088 3087 3086 3086 3085 3083 3082 3081 3081 3080 3080 3080 3079 3078 3077 3077 3076 3075 3075 3074 3074 3074 3074 3075 3076 3078 3081 3082 3084 3087 3090 3092 3089 3090 3095 3097 3098 3101 3103 3105 3107 3109 3112 3115 3114 3113 3116 3121 3123 3126 3128 3130 3132 3132 3132 3133 3135 3135 3132 3129 3128 3130 3131 3131 3132 3133 3134 3136 3138 3140 3141 3143 3145 3148 3150
3108 3106 3104 3102 3100 3099 3097 3094 3093 3091 3091 3090 3089 3087 3086 3086 3085 3084 3083 3081 3080 3079 3079 3079 3079 3078 3077 3076 3076 3075 3075 3075 3074 3073 3072 3072 3074 3075 3076 3077 3080 3083 3086 3090 3089 3085 3088 3093 3095 3097 3099 3101 3101 3103 3105 3110 3113 3110 3110 3117 3120 3122 3125 3127 3129 3131 3130 3130 3130 3131 3133 3132 3126 3124 3127 3129 3128 3129 3130 3131 3133 3135 3137 3139 3141 3143 3145 3148
3106 3104 3103 3100 3098 3096 3095 3093 3091 3089 3088 3088 3087 3086 3085 3084 3084 3083 3083 3083 3080 3078 3079 3078 3078 3078 3077 3076 3076 3075 3075 3074 3073 3072 3071 3071 3072 3074 3075 3076 3078 3081 3084 3085 3083 3083 3087 3090 3092 3095 3098 3096 3096 3099 3103 3108 3109 3108 3111 3116 3118 3122 3124 3126 3129 3129 3130 3130 3125 3125 3131 3131 3124 3121 3124 3126 3125 3124 3124 3127 3129 3131 3134 3136 3138 3140 3142 3145
3105 3103 3101 3099 3096 3095 3093 3091 3089 3087 3086 3086 3085 3084 3083 3083 3083 3082 3083 3083 3080 3078 3078 3078 3077 3077 3076 3075 3075 3075 3074 3073 3072 3071 3070 3070 3071 3073 3074 3076 3078 3080 3082 3083 3082 3084 3087 3088 3091 3094 3094 3093 3094 3099 3103 3105 3106 3107 3112 3115 3118 3121 3122 3125 3127 3127 3130 3127 3118 3119 3125 3126 3123 3119 3120 3122 3119 3118 3120 3125 3127 3129 3131 3133 3136 3138 3140 3143
3104 3102 3099 3096 3094 3093 3091 3089 3087 3085 3083 3083 3083 3082 3082 3082 3082 3082 3083 3082 3078 3077 3077 3077 3076 3076 3074 3074 3074 3074 3074 3073 3072 3070 3069 3069 3070 3071 3072 3074 3077 3078 3080 3081 3081 3083 3086 3088 3091 3091 3091 3093 3096 3100 3101 3103 3105 3108 3112 3115 3118 3119 3121 3124 3123 3126 3128 3117 3110 3116 3121 3123 3120 3114 3115 3116 3114 3116 3120 3124 3125 3127 3128 3130 3132 3135 3137 3140
3103 3100 3097 3094 3092 3090 3089 3087 3086 3084 3082 3081 3081 3081 3081 3081 3081 3082 3082 3079 3078 3077 3076 3075 3076 3074 3073 3073 3072 3073 3073 3072 3071 3070 3069 3068 3069 3070 3071 3073 3075 3077 3078 3078 3079 3081 3084 3086 3086 3087 3090 3094 3097 3099 3100 3103 3105 3108 3110 3114 3117 3118 3119 3121 3120 3124 3121 3107 3106 3114 3118 3119 3113 3107 3110 3112 3112 3116 3119 3121 3123 3124 3126 3127 3129 3132 3134 3137
3101 3099 3095 3092 3089 3087 3085 3084 3083 3082 3081 3079 3080 3079 3079 3080 3080 3080 3079 3078 3078 3077 3075 3075 3074 3073 3073 3072 3072 3072 3071 3071 3070 3069 3068 3068 3068 3068 3069 3070 3072 3073 3075 3075 3076 3078 3080 3081 3083 3086 3089 3092 3094 3096 3099 3101 3103 3105 3108 3112 3115 3116 3117 3117 3115 3115 3110 3103 3107 3113 3115 3112 3102 3102 3109 3109 3111 3114 3116 3119 3121 3122 3123 3125 3127 3129 3131 3134
3099 3097 3093 3090 3087 3085 3083 3082 3081 3080 3079 3078 3078 3078 3078 3079 3079 3079 3078 3078 3078 3077 3075 3075 3074 3073 3073 3072 3072 3071 3071 3071 3070 3069 3069 3069 3068 3067 3068 3068 3068 3069 3071 3072 3074 3076 3077 3079 3082 3085 3087 3089 3090 3091 3094 3096 3099 3102 3104 3108 3110 3111 3113 3113 3111 3109 3105 3104 3107 3111 3112 3105 3096 3099 3104 3106 3109 3111 3114 3117 3119 3120 3121 3122 3124 3126 3128 3131
3097 3095 3091 3088 3086 3083 3081 3080 3079 3078 3078 3077 3077 3077 3077 3078 3079 3079 3078 3078 3077 3076 3076 3075 3074 3074 3073 3072 3072 3071 3071 3070 3070 3069 3069 3069 3068 3068 3067 3067 3067 3068 3070 3071 3073 3074 3075 3075 3077 3081 3083 3085 3086 3088 3090 3094 3097 3098 3101 3104 3105 3105 3106 3107 3108 3107 3104 3104 3106 3109 3107 3098 3093 3096 3099 3104 3109 3110 3112 3115 3117 3118 3118 3120 3122 3123 3125 3127
3095 3093 3090 3087 3085 3082 3080 3078 3077 3076 3076 3076 3075 3076 3076 3077 3077 3077 3077 3077 3076 3076 3075 3074 3074 3073 3073 3073 3072 3071 3071 3070 3070 3069 3068 3068 3068 3068 3068 3067 3067 3067 3069 3070 3071 3072 3071 3070 3072 3076 3078 3081 3084 3086 3089 3092 3094 3095 3098 3101 3099 3098 3101 3104 3104 3103 3103 3104 3101 3099 3096 3092 3093 3096 3097 3102 3106 3108 3110 3112 3115 3116 3116 3118 3120 3120 3122 3123
3094 3092 3089 3086 3084 3081 3079 3077 3076 3075 3075 3075 3074 3075 3075 3076 3076 3076 3075 3075 3075 3074 3074 3074 3073 3072 3072 3072 3071 3071 3071 3070 3070 3069 3068 3068 3068 3068 3068 3067 3067 3067 3068 3069 3070 3070 3069 3067 3070 3073 3076 3079 3081 3082 3085 3087 3089 3092 3094 3093 3092 3096 3101 3104 3102 3101 3103 3101 3093 3090 3090 3091 3094 3095 3096 3100 3102 3105 3108 3109 3112 3114 3114 3116 3117 3118 3120 3120
3092 3090 3087 3085 3083 3081 3078 3076 3075 3074 3074 3074 3074 3074 3075 3075 3075 3075 3074 3074 3074 3073 3073 3073 3072 3071 3071 3071 3071 3070 3070 3070 3070 3069 3069 3068 3068 3068 3068 3068 3068 3068 3068 3068 3069 3070 3068 3066 3068 3071 3073 3076 3078 3079 3081 3084 3086 3088 3088 3088 3093 3099 3102 3102 3101 3100 3101 3097 3089 3087 3089 3090 3091 3091 3093 3097 3099 3102 3105 3107 3109 3111 3113 3114 3115 3116 3118 3119
3089 3087 3084 3082 3080 3079 3077 3075 3073 3073 3073 3073 3073 3074 3074 3074 3074 3073 3073 3073 3073 3073 3072 3072 3072 3071 3071 3071 3071 3070 3070 3069 3069 3069 3069 3068 3068 3068 3067 3067 3068 3068 3068 3069 3069 3069 3068 3066 3066 3069 3070 3072 3075 3077 3079 3081 3084 3086 3086 3088 3092 3095 3094 3096 3097 3096 3096 3094 3089 3086 3086 3086 3087 3087 3090 3094 3096 3099 3102 3105 3107 3109 3111 3112 3113 3114 3116 3117
3087 3085 3082 3080 3078 3076 3074 3073 3071 3071 3071 3072 3073 3073 3073 3073 3073 3073 3073 3073 3072 3072 3071 3071 3071 3071 3071 3070 3070 3070 3070 3069 3069 3069 3069 3069 3069 3068 3067 3067 3067 3067 3068 3069 3068 3068 3068 3067 3066 3066 3068 3070 3072 3075 3077 3079 3082 3085 3086 3087 3088 3090 3089 3090 3091 3090 3092 3092 3089 3086 3083 3080 3081 3085 3089 3092 3094 3097 3099 3102 3104 3106 3109 3110 3111 3113 3114 3115
3086 3085 3081 3078 3076 3074 3072 3070 3069 3069 3070 3071 3072 3072 3072 3072 3073 3072 3072 3072 3072 3071 3071 3070 3070 3070 3070 3070 3070 3070 3070 3069 3069 3069 3069 3069 3068 3067 3067 3067 3066 3066 3067 3068 3068 3067 3067 3068 3066 3064 3066 3068 3069 3072 3074 3077 3080 3082 3082 3083 3085 3087 3087 3088 3088 3088 3089 3089 3087 3085 3081 3076 3079 3083 3086 3089 3092 3094 3096 3099 3101 3104 3106 3108 3110 3111 3112 3113
3084 3083 3080 3077 3075 3072 3070 3069 3069 3068 3069 3070 3071 3071 3071 3071 3072 3072 3072 3071 3071 3071 3070 3070 3069 3069 3069 3069 3069 3069 3069 3069 3069 3069 3068 3068 3068 3067 3066 3066 3065 3065 3066 3066 3066 3066 3066 3067 3066 3064 3064 3065 3067 3069 3072 3074 3076 3077 3078 3080 3082 3084 3085 3086 3085 3083 3085 3084 3083 3083 3078 3073 3078 3082 3083 3086 3089 3091 3093 3096 3098 3101 3103 3106 3107 3109 3110 3111
3082 3080 3079 3076 3074 3072 3070 3069 3068 3068 3068 3069 3070 3070 3070 3070 3070 3071 3071 3071 3071 3070 3070 3069 3069 3069 3069 3069 3069 3068 3069 3069 3068 3068 3068 3067 3067 3066 3065 3065 3065 3065 3065 3065 3065 3065 3065 3065 3065 3063 3063 3063 3065 3068 3070 3071 3072 3074 3075 3077 3080 3082 3082 3083 3080 3079 3082 3081 3081 3083 3076 3068 3075 3082 3083 3085 3087 3088 3090 3092 3095 3098 3100 3103 3105 3107 3108 3109
3081 3078 3077 3075 3073 3071 3070 3069 3068 3067 3067 3068 3069 3069 3069 3069 3070 3070 3070 3070 3070 3069 3069 3068 3068 3067 3068 3068 3068 3068 3068 3068 3067 3067 3066 3066 3066 3065 3065 3064 3064 3064 3064 3064 3064 3064 3065 3064 3064 3062 3062 3063 3066 3067 3068 3069 3070 3071 3072 3073 3075 3076 3077 3078 3076 3077 3079 3076 3079 3082 3073 3064 3071 3079 3081 3084 3085 3086 3088 3090 3092 3095 3097 3100 3102 3104 3106 3108
3080 3077 3075 3074 3073 3071 3069 3068 3067 3067 3067 3067 3068 3068 3067 3068 3069 3069 3069 3069 3068 3068 3067 3067 3066 3066 3067 3067 3067 3067 3067 3067 3066 3065 3065 3065 3064 3064 3063 3063 3063 3062 3063 3064 3063 3063 3064 3064 3064 3063 3063 3065 3066 3066 3066 3066 3067 3067 3068 3070 3071 3073 3075 3074 3074 3077 3075 3071 3075 3076 3066 3062 3070 3076 3079 3082 3083 3084 3086 3088 3090 3092 3094 3096 3099 3101 3103 3105
3080 3076 3073 3072 3071 3070 3069 3067 3066 3066 3066 3066 3067 3067 3067 3067 3068 3068 3067 3067 3067 3067 3066 3066 3065 3065 3066 3066 3066 3066 3065 3065 3065 3064 3064 3064 3063 3063 3062 3061 3061 3061 3062 3063 3062 3062 3063 3063 3064 3064 3065 3065 3063 3063 3065 3065 3064 3064 3065 3067 3069 3071 3072 3071 3073 3074 3070 3068 3070 3066 3061 3064 3070 3073 3076 3079 3081 3082 3084 3085 3087 3089 3090 3092 3094 3097 3099 3101
3078 3076 3073 3070 3069 3068 3067 3067 3066 3065 3065 3065 3066 3066 3066 3066 3067 3066 3066 3066 3066 3066 3065 3065 3065 3064 3064 3064 3064 3064 3064 3064 3063 3063 3063 3062 3062 3061 3060 3060 3060 3059 3060 3061 3061 3061 3061 3061 3063 3064 3063 3063 3061 3062 3065 3065 3064 3063 3062 3063 3065 3068 3069 3069 3070 3068 3066 3067 3065 3060 3062 3065 3066 3070 3074 3076 3078 3080 3081 3083 3084 3086 3087 3088 3090 3092 3094 3096
3077 3075 3073 3070 3068 3067 3066 3066 3065 3064 3064 3064 3064 3065 3065 3065 3065 3065 3065 3065 3064 3065 3064 3064 3064 3063 3062 3062 3062 3062 3062 3062 3062 3061 3061 3061 3060 3060 3059 3059 3059 3058 3058 3058 3059 3059 3059 3059 3061 3062 3061 3061 3061 3061 3064 3066 3064 3062 3061 3061 3062 3065 3066 3066 3064 3063 3065 3066 3060 3058 3065 3063 3059 3065 3071 3073 3076 3078 3078 3080 3081 3082 3084 3085 3086 3087 3088 3090
3076 3074 3072 3070 3068 3066 3065 3065 3064 3063 3063 3063 3063 3064 3064 3064 3064 3064 3064 3064 3063 3063 3063 3063 3062 3062 3061 3060 3060 3060 3060 3059 3059 3059 3059 3059 3059 3059 3058 3058 3057 3057 3057 3057 3057 3057 3057 3056 3058 3059 3059 3059 3060 3061 3063 3064 3062 3061 3060 3060 3060 3061 3062 3061 3059 3060 3063 3060 3056 3060 3065 3059 3055 3061 3067 3070 3073 3074 3075 3076 3077 3078 3079 3080 3080 3081 3081 3083
3075 3074 3072 3070 3067 3066 3065 3064 3063 3062 3062 3062 3063 3063 3063 3063 3063 3063 3063 3063 3062 3061 3061 3061 3060 3060 3060 3059 3058 3058 3058 3058 3058 3058 3058 3057 3057 3057 3056 3056 3056 3055 3055 3056 3056 3055 3055 3055 3056 3058 3057 3057 3058 3060 3062 3062 3061 3059 3059 3059 3059 3058 3057 3056 3056 3058 3058 3055 3056 3062 3061 3055 3054 3059 3063 3067 3069 3070 3071 3072 3073 3074 3074 3075 3075 3074 3074 3076
3075 3073 3071 3069 3067 3065 3064 3063 3063 3062 3062 3062 3062 3063 3063 3063 3063 3063 3062 3062 3061 3060 3059 3059 3059 3059 3058 3058 3057 3057 3057 3056 3056 3055 3055 3055 3054 3055 3055 3054 3054 3054 3053 3054 3055 3055 3054 3054 3055 3056 3055 3054 3057 3059 3060 3060 3059 3057 3057 3059 3058 3056 3054 3053 3054 3055 3055 3054 3057 3061 3058 3053 3054 3058 3060 3062 3065 3067 3067 3068 3068 3069 3069 3070 3069 3068 3069 3072
3074 3073 3071 3069 3067 3065 3064 3063 3062 3061 3061 3061 3061 3062 3062 3062 3062 3062 3061 3061 3060 3059 3058 3058 3057 3057 3057 3056 3056 3055 3055 3054 3054 3053 3053 3052 3052 3052 3052 3052 3052 3052 3051 3052 3053 3053 3052 3052 3053 3055 3054 3053 3055 3057 3057 3057 3057 3055 3056 3057 3056 3053 3052 3051 3051 3052 3051 3052 3055 3058 3055 3052 3054 3056 3057 3059 3062 3063 3064 3064 3064 3065 3065 3065 3065 3065 3066 3069
3074 3072 3070 3068 3067 3065 3064 3063 3062 3061 3060 3060 3060 3061 3062 3061 3061 3060 3060 3059 3059 3058 3057 3056 3055 3055 3055 3055 3054 3054 3053 3052 3051 3051 3051 3050 3049 3049 3049 3049 3050 3050 3049 3050 3051 3051 3051 3051 3052 3054 3053 3051 3053 3055 3055 3055 3054 3053 3053 3054 3053 3051 3049 3048 3048 3048 3048 3050 3053 3053 3051 3052 3054 3054 3055 3057 3060 3061 3061 3062 3062 3062 3063 3062 3061 3063 3065 3067